CZ-6A DEB

Satellite information

Favourite Embed

Satellite Type and Status

DEBRISIN ORBIT

Key statistics

Satellite CZ-6A DEB at a glance.

Uptime

1128

Days in orbit

Revolutions

≈ 14.6

Per day

Orbit

SSO

Sun Synchronous Orbit

Inclination

98.6

Latest

Satellite identification and parameters

Extended collection of information and parameters for CZ-6A DEB.

Object identification

Identified? True

Debris? True

Object name: CZ-6A DEB

International designator: 2022-151QN

Object number (NORAD): 54901

Object ID (CCSDS): 54901

Country: PEOPLES REPUBLIC OF CHINA (PRC)

Current information (Y/N): Y

RCS size: SMALL

Orbital parameters

Period: 98.919 minutes

Inclination: 98.6374 deg

SMA: 7085.128 km

Apoapsis: 774.475 km

Periapsis: 639.511 km

RAAN: 30.2848 deg

Eccentricy: 0.0095244

Argument of periapsis: 167.789 deg

Mean anomaly: 192.5647 deg

Mean motion: 14.55731246 rev/day

Mean motion (dot): 0.00011364 rev/day2

B* drag term: 0.0024513 1/REarth

Two-line elements (TLE)

Creation date: Dec. 12, 2025, 7:16 a.m.

Reference frame: TEME

Reference center: EARTH

Epoch: Dec. 12, 2025, 12:08 a.m. UTC

TLE line 0: 0 CZ-6A DEB

TLE line 1: 1 54901U 22151QN 25346.00608012 .00011364 00000-0 24513-2 0 9999

TLE line 2: 2 54901 98.6374 30.2848 0095244 167.7890 192.5647 14.55731246161982

Live tracking on map

Real-time ground track for satellite CZ-6A DEB.

In-orbit conjunctions

A list of the most updated potential collisions computed for object CZ-6A DEB.

Target Orbit TCA Probability of collision Miss distance Type
PSLV R/B SSO 2025-08-21 08:20:32 0.0103666 23.0 (m) ROCKET BODY
CZ-6A DEB LEO 2025-01-28 17:22:16 0.0002214388 476.0 (m) DEBRIS

Associated space launch

Chinese satellite reported for atmospheric/ocean/environmental/spatial parameter research purposes, details TBD.

CZ-6A DEB was lifted into orbit during the mission ‘Long March 6A | Yunhai 3’, on board a Long March 6A space rocket.

The launch took place on Nov. 11, 2022, 10:52 p.m. from Launch Complex 9A.

For more information about the launch, click the button.

Launch to space Long March 6A | Yunhai 3
Long March 6A | Yunhai 3

Agency: N/A

Status: Launch Successful

Launch date: Nov. 11, 2022, 10:52 p.m. UTC

Rocket: Long March 6A

Launch pad: Launch Complex 9A

Location: Taiyuan Satellite Launch Center, People's Republic of China

...

Latest news about this satellite

There are no fresh news available about this satellite. Check back as we update our databases every day.


Newsletter sign-up

Weekly statistics, charts and insights to help you stay on top of the space industry.